Time,TemperatureF,DewpointF,PressureIn,WindDirection,WindDirectionDegrees,WindSpeedMPH,WindSpeedGustMPH,Humidity,HourlyPrecipIn,Conditions,Clouds,dailyrainin,SoftwareType,DateUTC
2013-05-08 00:00:00,51.8,32.2,29.32,SE,130,0.0,0.0,47,0.00,,CLR,0.00,VWS V14.00,2013-05-08 07:00:00,
2013-05-08 00:05:00,51.6,32.6,29.32,SE,130,0.0,0.0,48,0.00,,CLR,0.00,VWS V14.00,2013-05-08 07:05:00,
2013-05-08 00:11:00,51.4,32.4,29.32,SE,131,0.0,0.0,48,0.00,,CLR,0.00,VWS V14.00,2013-05-08 07:11:00,
2013-05-08 00:16:00,51.3,32.3,29.32,SE,131,0.0,0.0,48,0.00,,CLR,0.00,VWS V14.00,2013-05-08 07:16:00,
2013-05-08 00:21:00,51.1,32.6,29.32,SE,131,0.0,0.0,49,0.00,,CLR,0.00,VWS V14.00,2013-05-08 07:21:00,
2013-05-08 00:27:00,50.9,32.4,29.32,SE,131,0.0,0.0,49,0.00,,CLR,0.00,VWS V14.00,2013-05-08 07:27:00,
2013-05-08 00:33:00,50.9,32.9,29.32,SE,131,0.0,0.0,50,0.00,,CLR,0.00,VWS V14.00,2013-05-08 07:33:00,
2013-05-08 00:38:00,50.9,32.9,29.32,SE,131,0.0,0.0,50,0.00,,CLR,0.00,VWS V14.00,2013-05-08 07:38:00,
2013-05-08 00:44:00,50.7,32.8,29.32,SE,131,0.0,0.0,50,0.00,,CLR,0.00,VWS V14.00,2013-05-08 07:44:00,
2013-05-08 00:49:00,50.5,32.6,29.32,SE,131,0.0,0.0,50,0.00,,CLR,0.00,VWS V14.00,2013-05-08 07:49:00,
2013-05-08 00:55:00,50.2,32.8,29.32,SE,131,0.0,0.0,51,0.00,,CLR,0.00,VWS V14.00,2013-05-08 07:55:00,
2013-05-08 01:01:00,50.0,32.6,29.32,SE,131,0.0,0.0,51,0.00,,CLR,0.00,VWS V14.00,2013-05-08 08:01:00,
2013-05-08 01:07:00,49.8,32.4,29.32,SE,131,0.0,0.0,51,0.00,,CLR,0.00,VWS V14.00,2013-05-08 08:07:00,
2013-05-08 01:13:00,49.6,32.3,29.32,SE,131,0.0,0.0,51,0.00,,CLR,0.00,VWS V14.00,2013-05-08 08:13:00,
2013-05-08 01:19:00,49.5,32.6,29.32,SE,131,0.0,0.0,52,0.00,,CLR,0.00,VWS V14.00,2013-05-08 08:19:00,
2013-05-08 01:24:00,49.6,32.8,29.32,SE,131,0.0,0.0,52,0.00,,CLR,0.00,VWS V14.00,2013-05-08 08:24:00,
2013-05-08 01:30:00,49.5,33.1,29.32,SE,131,0.0,0.0,53,0.00,,CLR,0.00,VWS V14.00,2013-05-08 08:30:00,
2013-05-08 01:35:00,49.5,33.1,29.32,SE,131,0.0,0.0,53,0.00,,CLR,0.00,VWS V14.00,2013-05-08 08:35:00,
2013-05-08 01:41:00,49.3,32.9,29.32,SE,131,0.0,0.0,53,0.00,,CLR,0.00,VWS V14.00,2013-05-08 08:41:00,
2013-05-08 01:46:00,49.1,32.7,29.32,SE,131,0.0,0.0,53,0.00,,CLR,0.00,VWS V14.00,2013-05-08 08:46:00,
2013-05-08 01:52:00,48.9,32.6,29.32,SE,131,0.0,0.0,53,0.00,,CLR,0.00,VWS V14.00,2013-05-08 08:52:00,
2013-05-08 01:58:00,48.7,32.4,29.32,SE,131,0.0,0.0,53,0.00,,CLR,0.00,VWS V14.00,2013-05-08 08:58:00,
2013-05-08 02:03:00,48.6,32.7,29.32,SE,131,0.0,0.0,54,0.00,,CLR,0.00,VWS V14.00,2013-05-08 09:03:00,
2013-05-08 02:09:00,48.4,32.5,29.32,SE,131,0.0,0.0,54,0.00,,CLR,0.00,VWS V14.00,2013-05-08 09:09:00,
2013-05-08 02:14:00,48.2,32.3,29.32,SE,131,0.0,0.0,54,0.00,,CLR,0.00,VWS V14.00,2013-05-08 09:14:00,
2013-05-08 02:20:00,48.2,32.3,29.32,SE,131,0.0,0.0,54,0.00,,CLR,0.00,VWS V14.00,2013-05-08 09:20:00,
2013-05-08 02:26:00,48.0,32.6,29.32,SE,131,0.0,0.0,55,0.00,,CLR,0.00,VWS V14.00,2013-05-08 09:26:00,
2013-05-08 02:31:00,47.8,32.5,29.32,SE,131,0.0,0.0,55,0.00,,CLR,0.00,VWS V14.00,2013-05-08 09:31:00,
2013-05-08 02:37:00,47.8,32.5,29.32,SE,131,0.0,0.0,55,0.00,,CLR,0.00,VWS V14.00,2013-05-08 09:37:00,
2013-05-08 02:42:00,47.7,32.3,29.32,SE,131,0.0,0.0,55,0.00,,CLR,0.00,VWS V14.00,2013-05-08 09:42:00,
2013-05-08 02:48:00,47.7,32.3,29.32,SE,131,0.0,0.0,55,0.00,,CLR,0.00,VWS V14.00,2013-05-08 09:48:00,
2013-05-08 02:53:00,47.7,32.8,29.32,SE,131,0.0,0.0,56,0.00,,CLR,0.00,VWS V14.00,2013-05-08 09:53:00,
2013-05-08 02:59:00,47.7,32.8,29.32,SE,131,0.0,0.0,56,0.00,,CLR,0.00,VWS V14.00,2013-05-08 09:59:00,
2013-05-08 03:04:00,47.8,33.4,29.32,SE,131,0.0,0.0,57,0.00,,OVC013,0.00,VWS V14.00,2013-05-08 10:04:00,
2013-05-08 03:10:00,48.4,33.9,29.32,SE,131,0.0,0.0,57,0.00,,OVC013,0.00,VWS V14.00,2013-05-08 10:10:00,
2013-05-08 03:16:00,48.7,34.6,29.32,SE,131,0.0,0.0,58,0.00,,OVC013,0.00,VWS V14.00,2013-05-08 10:16:00,
2013-05-08 03:21:00,49.3,35.1,29.32,SE,131,0.0,0.0,58,0.00,,OVC013,0.00,VWS V14.00,2013-05-08 10:21:00,
2013-05-08 03:27:00,49.6,35.9,29.32,SE,131,0.0,0.0,59,0.00,,OVC013,0.00,VWS V14.00,2013-05-08 10:27:00,
2013-05-08 03:32:00,49.8,36.1,29.32,SE,131,0.0,0.0,59,0.00,,OVC013,0.00,VWS V14.00,2013-05-08 10:32:00,
2013-05-08 03:38:00,50.2,36.8,29.32,SE,131,0.0,0.0,60,0.00,,OVC013,0.00,VWS V14.00,2013-05-08 10:38:00,
2013-05-08 03:44:00,50.2,36.8,29.32,ESE,122,0.0,0.0,60,0.00,,OVC013,0.00,VWS V14.00,2013-05-08 10:44:00,
2013-05-08 03:49:00,50.4,37.0,29.32,ESE,122,0.0,0.0,60,0.00,,OVC013,0.00,VWS V14.00,2013-05-08 10:49:00,
2013-05-08 03:55:00,50.5,37.2,29.32,ESE,122,0.0,0.0,60,0.00,,OVC013,0.00,VWS V14.00,2013-05-08 10:55:00,
2013-05-08 04:00:00,50.5,37.6,29.32,ESE,123,0.0,0.0,61,0.00,,OVC013,0.00,VWS V14.00,2013-05-08 11:00:00,
2013-05-08 04:06:00,50.7,37.8,29.32,ESE,123,0.0,0.0,61,0.00,,OVC013,0.00,VWS V14.00,2013-05-08 11:06:00,
2013-05-08 04:12:00,50.7,37.8,29.32,ESE,123,0.0,0.0,61,0.00,,OVC013,0.00,VWS V14.00,2013-05-08 11:12:00,
2013-05-08 04:17:00,50.9,38.0,29.32,ESE,123,0.0,0.0,61,0.00,,OVC013,0.00,VWS V14.00,2013-05-08 11:17:00,
2013-05-08 04:23:00,50.9,37.5,29.32,SE,125,0.0,0.0,60,0.00,,OVC013,0.00,VWS V14.00,2013-05-08 11:23:00,
2013-05-08 04:29:00,50.9,37.5,29.32,SE,125,0.0,0.0,60,0.00,,OVC013,0.00,VWS V14.00,2013-05-08 11:29:00,
2013-05-08 04:34:00,50.9,37.5,29.32,SE,125,0.0,0.0,60,0.00,,OVC013,0.00,VWS V14.00,2013-05-08 11:34:00,
2013-05-08 04:40:00,51.1,37.7,29.32,SE,132,0.0,0.0,60,0.00,,OVC013,0.00,VWS V14.00,2013-05-08 11:40:00,
2013-05-08 04:45:00,51.1,37.7,29.32,SE,132,0.0,0.0,60,0.00,,OVC013,0.00,VWS V14.00,2013-05-08 11:45:00,
2013-05-08 04:51:00,51.1,37.3,29.32,SE,133,2.2,3.6,59,0.00,,OVC013,0.00,VWS V14.00,2013-05-08 11:51:00,
2013-05-08 04:56:00,51.1,37.3,29.32,SE,133,0.0,2.2,59,0.00,,OVC013,0.00,VWS V14.00,2013-05-08 11:56:00,
2013-05-08 05:02:00,51.1,37.3,29.32,SE,133,0.0,0.0,59,0.00,,OVC013,0.00,VWS V14.00,2013-05-08 12:02:00,
2013-05-08 05:08:00,51.1,37.3,29.32,SE,133,0.0,0.0,59,0.00,,OVC013,0.00,VWS V14.00,2013-05-08 12:08:00,
2013-05-08 05:13:00,51.3,37.4,29.32,SE,133,0.0,0.0,59,0.00,,OVC013,0.00,VWS V14.00,2013-05-08 12:13:00,
2013-05-08 05:19:00,51.3,37.4,29.32,SE,133,0.0,0.0,59,0.00,,OVC013,0.00,VWS V14.00,2013-05-08 12:19:00,
2013-05-08 05:24:00,51.3,37.4,29.32,SE,133,0.0,0.0,59,0.00,,OVC013,0.00,VWS V14.00,2013-05-08 12:24:00,
2013-05-08 05:30:00,51.3,37.4,29.32,SE,133,0.0,0.0,59,0.00,,OVC013,0.00,VWS V14.00,2013-05-08 12:30:00,
2013-05-08 05:36:00,51.3,37.4,29.32,SE,133,0.0,0.0,59,0.00,,OVC013,0.00,VWS V14.00,2013-05-08 12:36:00,
2013-05-08 05:41:00,51.1,37.3,29.32,SE,133,0.0,0.0,59,0.00,,OVC013,0.00,VWS V14.00,2013-05-08 12:41:00,
2013-05-08 05:47:00,51.1,37.3,29.32,SE,133,0.0,0.0,59,0.00,,OVC013,0.00,VWS V14.00,2013-05-08 12:47:00,
2013-05-08 05:52:00,51.1,37.3,29.32,SE,133,0.0,0.0,59,0.00,,OVC013,0.00,VWS V14.00,2013-05-08 12:52:00,
2013-05-08 05:58:00,51.1,37.3,29.32,SE,133,0.0,0.0,59,0.00,,OVC013,0.00,VWS V14.00,2013-05-08 12:58:00,
2013-05-08 06:04:00,51.3,37.4,29.32,SE,133,0.0,0.0,59,0.00,,OVC013,0.00,VWS V14.00,2013-05-08 13:04:00,
2013-05-08 06:09:00,51.1,37.3,29.32,SE,133,0.0,0.0,59,0.00,,OVC013,0.00,VWS V14.00,2013-05-08 13:09:00,
2013-05-08 06:15:00,51.1,37.7,29.32,SE,133,0.0,0.0,60,0.00,,OVC013,0.00,VWS V14.00,2013-05-08 13:15:00,
2013-05-08 06:20:00,51.1,37.7,29.32,SE,133,0.0,0.0,60,0.00,,OVC013,0.00,VWS V14.00,2013-05-08 13:20:00,
2013-05-08 06:26:00,51.3,37.9,29.32,SE,133,0.0,0.0,60,0.00,,OVC013,0.00,VWS V14.00,2013-05-08 13:26:00,
2013-05-08 06:32:00,51.3,37.9,29.32,SE,133,0.0,0.0,60,0.00,,OVC013,0.00,VWS V14.00,2013-05-08 13:32:00,
2013-05-08 06:37:00,51.3,38.3,29.32,SE,133,0.0,0.0,61,0.00,,OVC013,0.00,VWS V14.00,2013-05-08 13:37:00,
2013-05-08 06:43:00,51.3,38.3,29.32,SE,133,0.0,0.0,61,0.00,,OVC013,0.00,VWS V14.00,2013-05-08 13:43:00,
2013-05-08 06:48:00,51.3,38.3,29.32,SE,133,0.0,0.0,61,0.00,,OVC013,0.00,VWS V14.00,2013-05-08 13:48:00,
2013-05-08 06:53:00,51.3,38.3,29.32,SE,133,0.0,0.0,61,0.00,,OVC013,0.00,VWS V14.00,2013-05-08 13:53:00,
2013-05-08 06:58:00,51.3,38.7,29.32,SE,133,0.0,0.0,62,0.00,,OVC013,0.00,VWS V14.00,2013-05-08 13:58:00,
2013-05-08 07:04:00,51.3,38.7,29.32,SE,133,0.0,0.0,62,0.00,,OVC013,0.00,VWS V14.00,2013-05-08 14:04:00,
2013-05-08 07:09:00,51.4,38.9,29.32,SE,133,0.0,0.0,62,0.00,,OVC013,0.00,VWS V14.00,2013-05-08 14:09:00,
2013-05-08 07:14:00,51.4,38.9,29.32,SE,133,0.0,0.0,62,0.00,,OVC013,0.00,VWS V14.00,2013-05-08 14:14:00,
2013-05-08 07:19:00,51.6,39.0,29.32,SE,133,0.0,0.0,62,0.00,,OVC013,0.00,VWS V14.00,2013-05-08 14:19:00,
2013-05-08 07:25:00,51.6,39.5,29.32,SE,125,0.0,0.0,63,0.00,,OVC013,0.00,VWS V14.00,2013-05-08 14:25:00,
2013-05-08 07:30:00,51.6,39.5,29.32,SE,125,0.0,0.0,63,0.00,,OVC013,0.00,VWS V14.00,2013-05-08 14:30:00,
2013-05-08 07:36:00,51.8,39.6,29.32,SE,125,0.0,0.0,63,0.00,,OVC013,0.00,VWS V14.00,2013-05-08 14:36:00,
2013-05-08 07:42:00,51.8,39.6,29.32,SE,125,0.0,0.0,63,0.00,,OVC013,0.00,VWS V14.00,2013-05-08 14:42:00,
2013-05-08 07:47:00,52.0,39.8,29.32,SE,125,0.0,0.0,63,0.00,,OVC013,0.00,VWS V14.00,2013-05-08 14:47:00,
2013-05-08 07:53:00,52.0,39.8,29.32,SE,125,0.0,0.0,63,0.00,,OVC013,0.00,VWS V14.00,2013-05-08 14:53:00,
2013-05-08 07:58:00,52.2,40.0,29.32,SSE,149,0.0,3.1,63,0.00,,OVC013,0.00,VWS V14.00,2013-05-08 14:58:00,
2013-05-08 08:04:00,52.2,40.0,29.32,SSE,148,3.1,3.1,63,0.00,,,0.00,VWS V14.00,2013-05-08 15:04:00,
2013-05-08 08:10:00,52.2,40.0,29.32,SSE,148,0.0,0.0,63,0.00,,,0.00,VWS V14.00,2013-05-08 15:10:00,
2013-05-08 08:15:00,52.3,40.1,29.32,SSE,148,0.0,0.0,63,0.00,,,0.00,VWS V14.00,2013-05-08 15:15:00,
2013-05-08 08:21:00,52.5,40.3,29.32,SSE,147,3.1,3.1,63,0.00,,,0.00,VWS V14.00,2013-05-08 15:21:00,
2013-05-08 08:26:00,52.7,40.5,29.32,SSE,147,0.0,0.0,63,0.00,,,0.00,VWS V14.00,2013-05-08 15:26:00,
2013-05-08 08:32:00,52.9,40.2,29.32,SSE,147,0.0,0.0,62,0.00,,,0.00,VWS V14.00,2013-05-08 15:32:00,
2013-05-08 08:37:00,52.9,40.2,29.32,SSE,147,0.0,0.0,62,0.00,,,0.00,VWS V14.00,2013-05-08 15:37:00,
2013-05-08 08:43:00,53.1,40.4,29.32,SE,144,0.0,0.0,62,0.00,,,0.00,VWS V14.00,2013-05-08 15:43:00,
2013-05-08 08:48:00,53.2,40.6,29.32,SE,144,0.0,0.0,62,0.00,,,0.00,VWS V14.00,2013-05-08 15:48:00,
2013-05-08 08:53:00,53.1,40.4,29.32,SE,144,0.0,0.0,62,0.00,,,0.00,VWS V14.00,2013-05-08 15:53:00,
2013-05-08 08:59:00,53.2,40.2,29.32,SE,144,0.0,0.0,61,0.00,,,0.00,VWS V14.00,2013-05-08 15:59:00,
2013-05-08 09:04:00,53.2,40.2,29.32,SE,144,0.0,0.0,61,0.00,,OVC011,0.00,VWS V14.00,2013-05-08 16:04:00,
2013-05-08 09:09:00,53.2,40.2,29.32,NNE,29,0.0,0.0,61,0.00,,OVC011,0.00,VWS V14.00,2013-05-08 16:09:00,
2013-05-08 09:15:00,53.2,40.2,29.32,SE,130,2.2,2.2,61,0.00,,OVC011,0.00,VWS V14.00,2013-05-08 16:15:00,
2013-05-08 09:21:00,53.2,40.2,29.32,SW,223,0.0,0.0,61,0.00,,OVC011,0.00,VWS V14.00,2013-05-08 16:21:00,
2013-05-08 09:27:00,53.4,40.3,29.32,SW,223,0.0,0.0,61,0.00,,OVC011,0.00,VWS V14.00,2013-05-08 16:27:00,
2013-05-08 09:32:00,53.4,39.9,29.32,SW,224,0.0,0.0,60,0.00,,OVC011,0.00,VWS V14.00,2013-05-08 16:32:00,
2013-05-08 09:38:00,53.6,40.1,29.32,SW,224,0.0,0.0,60,0.00,,OVC011,0.00,VWS V14.00,2013-05-08 16:38:00,
2013-05-08 09:43:00,53.6,40.1,29.32,WSW,249,0.0,0.0,60,0.00,,OVC011,0.00,VWS V14.00,2013-05-08 16:43:00,
2013-05-08 09:49:00,53.6,40.1,29.32,West,280,0.0,0.0,60,0.00,,OVC011,0.00,VWS V14.00,2013-05-08 16:49:00,
2013-05-08 09:55:00,53.8,39.8,29.32,SE,140,0.0,0.0,59,0.00,,OVC011,0.00,VWS V14.00,2013-05-08 16:55:00,
2013-05-08 10:00:00,53.8,39.8,29.32,SE,140,0.0,0.0,59,0.00,,OVC011,0.00,VWS V14.00,2013-05-08 17:00:00,
2013-05-08 10:06:00,54.0,40.0,29.32,WNW,299,0.0,0.0,59,0.00,,OVC013,0.00,VWS V14.00,2013-05-08 17:06:00,
2013-05-08 10:11:00,54.0,40.0,29.32,WNW,299,0.0,0.0,59,0.00,,OVC013,0.00,VWS V14.00,2013-05-08 17:11:00,
2013-05-08 10:17:00,54.0,39.5,29.32,West,260,0.0,0.0,58,0.00,,OVC013,0.00,VWS V14.00,2013-05-08 17:17:00,
2013-05-08 10:23:00,53.8,38.9,29.32,WNW,300,0.0,2.7,57,0.00,,OVC013,0.00,VWS V14.00,2013-05-08 17:23:00,
2013-05-08 10:29:00,53.8,38.5,29.32,WNW,291,2.7,2.7,56,0.00,,OVC013,0.00,VWS V14.00,2013-05-08 17:29:00,
2013-05-08 10:35:00,54.0,38.6,29.32,WNW,293,0.0,0.0,56,0.00,,OVC013,0.00,VWS V14.00,2013-05-08 17:35:00,
2013-05-08 10:40:00,54.1,38.8,29.32,WNW,293,0.0,0.0,56,0.00,,OVC013,0.00,VWS V14.00,2013-05-08 17:40:00,
2013-05-08 10:45:00,54.3,38.5,29.32,WNW,293,0.0,0.0,55,0.00,,OVC013,0.00,VWS V14.00,2013-05-08 17:45:00,
2013-05-08 10:51:00,54.3,38.0,29.32,WNW,293,0.0,0.0,54,0.00,,OVC013,0.00,VWS V14.00,2013-05-08 17:51:00,
2013-05-08 10:56:00,54.5,38.2,29.32,WNW,293,0.0,0.0,54,0.00,,OVC013,0.00,VWS V14.00,2013-05-08 17:56:00,
2013-05-08 11:02:00,54.5,38.2,29.32,WNW,293,0.0,0.0,54,0.00,,OVC013,0.00,VWS V14.00,2013-05-08 18:02:00,
2013-05-08 11:07:00,54.5,37.7,29.32,WNW,293,0.0,0.0,53,0.00,,OVC013,0.00,VWS V14.00,2013-05-08 18:07:00,
2013-05-08 11:12:00,54.7,37.4,29.32,WNW,291,0.0,0.0,52,0.00,,OVC013,0.00,VWS V14.00,2013-05-08 18:12:00,
2013-05-08 11:17:00,54.7,37.4,29.32,WNW,291,0.0,0.0,52,0.00,,OVC013,0.00,VWS V14.00,2013-05-08 18:17:00,
2013-05-08 11:23:00,54.7,36.9,29.32,West,278,0.0,2.7,51,0.00,,OVC013,0.00,VWS V14.00,2013-05-08 18:23:00,
2013-05-08 11:28:00,54.7,36.9,29.32,West,278,0.0,0.0,51,0.00,,OVC013,0.00,VWS V14.00,2013-05-08 18:28:00,
2013-05-08 11:33:00,54.7,36.4,29.32,West,278,0.0,0.0,50,0.00,,OVC013,0.00,VWS V14.00,2013-05-08 18:33:00,
2013-05-08 11:38:00,54.9,36.6,29.32,West,278,0.0,0.0,50,0.00,,OVC013,0.00,VWS V14.00,2013-05-08 18:38:00,
2013-05-08 11:44:00,55.2,36.9,29.32,West,278,2.7,2.7,50,0.00,,OVC013,0.00,VWS V14.00,2013-05-08 18:44:00,
2013-05-08 11:49:00,55.2,36.4,29.32,West,278,0.0,0.0,49,0.00,,OVC013,0.00,VWS V14.00,2013-05-08 18:49:00,
2013-05-08 11:55:00,55.4,36.1,29.32,West,281,0.0,2.2,48,0.00,,OVC013,0.00,VWS V14.00,2013-05-08 18:55:00,
2013-05-08 12:01:00,55.2,35.9,29.32,WNW,282,0.0,0.0,48,0.00,,OVC018,0.00,VWS V14.00,2013-05-08 19:01:00,
2013-05-08 12:06:00,55.4,36.1,29.32,WNW,283,0.0,0.0,48,0.00,,OVC018,0.00,VWS V14.00,2013-05-08 19:06:00,
2013-05-08 12:12:00,55.8,36.4,29.32,WNW,282,0.0,0.0,48,0.00,,OVC018,0.00,VWS V14.00,2013-05-08 19:12:00,
2013-05-08 12:17:00,55.9,36.5,29.32,SSE,164,0.0,0.0,48,0.00,,OVC018,0.00,VWS V14.00,2013-05-08 19:17:00,
2013-05-08 12:23:00,55.9,36.0,29.32,SSE,162,0.0,0.0,47,0.00,,OVC018,0.00,VWS V14.00,2013-05-08 19:23:00,
2013-05-08 12:29:00,56.3,35.8,29.32,SSE,153,0.0,0.0,46,0.00,,OVC018,0.00,VWS V14.00,2013-05-08 19:29:00,
2013-05-08 12:35:00,56.5,36.0,29.32,SE,127,0.0,0.0,46,0.00,,OVC018,0.00,VWS V14.00,2013-05-08 19:35:00,
2013-05-08 12:41:00,56.7,35.6,29.32,West,280,0.0,0.0,45,0.00,,OVC018,0.00,VWS V14.00,2013-05-08 19:41:00,
2013-05-08 12:47:00,56.8,35.7,29.32,West,280,0.0,0.0,45,0.00,,OVC018,0.00,VWS V14.00,2013-05-08 19:47:00,
2013-05-08 12:52:00,57.0,35.9,29.32,West,265,0.0,0.0,45,0.00,,OVC018,0.00,VWS V14.00,2013-05-08 19:52:00,
2013-05-08 12:58:00,57.0,35.3,29.32,WNW,294,0.0,0.0,44,0.00,,OVC018,0.00,VWS V14.00,2013-05-08 19:58:00,
2013-05-08 13:03:00,57.2,34.9,29.32,WNW,294,0.0,0.0,43,0.00,,OVC020,0.00,VWS V14.00,2013-05-08 20:03:00,
2013-05-08 13:09:00,57.4,34.5,29.32,WNW,294,0.0,0.0,42,0.00,,OVC020,0.00,VWS V14.00,2013-05-08 20:09:00,
2013-05-08 13:15:00,57.6,34.7,29.32,WNW,294,0.0,0.0,42,0.00,,OVC020,0.00,VWS V14.00,2013-05-08 20:15:00,
2013-05-08 13:20:00,57.9,34.4,29.32,WSW,258,2.2,2.7,41,0.00,,OVC020,0.00,VWS V14.00,2013-05-08 20:20:00,
2013-05-08 13:26:00,58.3,34.1,29.32,NNW,332,0.0,2.2,40,0.00,,OVC020,0.00,VWS V14.00,2013-05-08 20:26:00,
2013-05-08 13:32:00,58.5,33.6,29.32,WNW,283,2.2,2.7,39,0.00,,OVC020,0.00,VWS V14.00,2013-05-08 20:32:00,
2013-05-08 13:37:00,58.5,33.6,29.32,West,281,0.0,0.0,39,0.00,,OVC020,0.00,VWS V14.00,2013-05-08 20:37:00,
2013-05-08 13:43:00,58.8,33.9,29.32,WNW,283,2.7,2.7,39,0.00,,OVC020,0.00,VWS V14.00,2013-05-08 20:43:00,
2013-05-08 13:48:00,59.4,34.4,29.32,SSE,163,0.0,3.1,39,0.00,,OVC020,0.00,VWS V14.00,2013-05-08 20:48:00,
2013-05-08 13:53:00,59.5,34.6,29.32,SE,142,2.2,4.9,39,0.00,,OVC020,0.00,VWS V14.00,2013-05-08 20:53:00,
2013-05-08 13:58:00,59.7,34.1,29.32,SE,138,0.0,0.0,38,0.00,,OVC020,0.00,VWS V14.00,2013-05-08 20:58:00,
2013-05-08 14:04:00,59.7,33.4,29.32,WSW,254,0.0,2.2,37,0.00,,OVC022,0.00,VWS V14.00,2013-05-08 21:04:00,
2013-05-08 14:09:00,59.9,33.6,29.32,NW,323,0.0,3.1,37,0.00,,OVC022,0.00,VWS V14.00,2013-05-08 21:09:00,
2013-05-08 14:15:00,60.1,33.1,29.32,East,97,0.0,2.7,36,0.00,,OVC022,0.00,VWS V14.00,2013-05-08 21:15:00,
2013-05-08 14:21:00,60.4,33.4,29.32,East,98,0.0,0.0,36,0.00,,OVC022,0.00,VWS V14.00,2013-05-08 21:21:00,
2013-05-08 14:26:00,61.0,33.9,29.32,SE,128,0.0,0.0,36,0.00,,OVC022,0.00,VWS V14.00,2013-05-08 21:26:00,
2013-05-08 14:32:00,61.2,33.3,29.32,NW,318,0.0,0.0,35,0.00,,OVC022,0.00,VWS V14.00,2013-05-08 21:32:00,
2013-05-08 14:37:00,61.7,33.8,29.32,ENE,62,0.0,0.0,35,0.00,,OVC022,0.00,VWS V14.00,2013-05-08 21:37:00,
2013-05-08 14:43:00,61.9,33.2,29.32,NW,307,0.0,0.0,34,0.00,,OVC022,0.00,VWS V14.00,2013-05-08 21:43:00,
2013-05-08 14:49:00,62.1,33.4,29.32,ESE,119,2.2,3.1,34,0.00,,OVC022,0.00,VWS V14.00,2013-05-08 21:49:00,
2013-05-08 14:55:00,62.4,33.7,29.32,West,274,0.0,0.0,34,0.00,,OVC022,0.00,VWS V14.00,2013-05-08 21:55:00,
2013-05-08 15:01:00,62.8,34.0,29.32,North,4,2.2,2.2,34,0.00,,BKN024,0.00,VWS V14.00,2013-05-08 22:01:00,
2013-05-08 15:07:00,63.3,34.5,29.32,NNW,333,3.1,3.1,34,0.00,,BKN024,0.00,VWS V14.00,2013-05-08 22:07:00,
2013-05-08 15:12:00,63.9,34.2,29.32,ESE,122,2.7,3.1,33,0.00,,BKN024,0.00,VWS V14.00,2013-05-08 22:12:00,
2013-05-08 15:18:00,64.2,33.8,29.32,WNW,294,3.1,3.1,32,0.00,,BKN024,0.00,VWS V14.00,2013-05-08 22:18:00,
2013-05-08 15:23:00,64.4,33.9,29.32,North,3,0.0,0.0,32,0.00,,BKN024,0.00,VWS V14.00,2013-05-08 22:23:00,
2013-05-08 15:29:00,64.6,34.8,29.32,NE,46,0.0,2.7,33,0.00,,BKN024,0.00,VWS V14.00,2013-05-08 22:29:00,
2013-05-08 15:35:00,64.9,35.2,29.32,SSW,204,2.2,4.9,33,0.00,,BKN024,0.00,VWS V14.00,2013-05-08 22:35:00,
2013-05-08 15:40:00,65.1,33.8,29.32,SE,131,0.0,0.0,31,0.00,,BKN024,0.00,VWS V14.00,2013-05-08 22:40:00,
2013-05-08 15:46:00,65.1,32.9,29.32,North,357,0.0,0.0,30,0.00,,BKN024,0.00,VWS V14.00,2013-05-08 22:46:00,
2013-05-08 15:51:00,65.1,32.9,29.32,South,179,0.0,0.0,30,0.00,,BKN024,0.00,VWS V14.00,2013-05-08 22:51:00,
2013-05-08 15:57:00,65.3,33.1,29.32,NNW,338,3.1,4.0,30,0.00,,BKN024,0.00,VWS V14.00,2013-05-08 22:57:00,
2013-05-08 16:02:00,65.3,32.3,29.32,NNW,333,2.7,4.9,29,0.00,,CLR,0.00,VWS V14.00,2013-05-08 23:02:00,
2013-05-08 16:07:00,65.1,32.1,29.32,West,261,2.2,2.2,29,0.00,,CLR,0.00,VWS V14.00,2013-05-08 23:07:00,
2013-05-08 16:13:00,65.5,33.3,29.32,WNW,284,2.7,4.0,30,0.00,,CLR,0.00,VWS V14.00,2013-05-08 23:13:00,
2013-05-08 16:18:00,65.7,33.4,29.32,West,276,0.0,0.0,30,0.00,,CLR,0.00,VWS V14.00,2013-05-08 23:18:00,
2013-05-08 16:24:00,66.2,32.2,29.32,North,350,2.2,3.1,28,0.00,,CLR,0.00,VWS V14.00,2013-05-08 23:24:00,
2013-05-08 16:29:00,66.2,32.2,29.32,North,350,0.0,0.0,28,0.00,,CLR,0.00,VWS V14.00,2013-05-08 23:29:00,
2013-05-08 16:35:00,66.2,31.3,29.32,SE,141,0.0,0.0,27,0.00,,CLR,0.00,VWS V14.00,2013-05-08 23:35:00,
2013-05-08 16:41:00,66.2,31.3,29.32,ESE,117,0.0,0.0,27,0.00,,CLR,0.00,VWS V14.00,2013-05-08 23:41:00,
2013-05-08 16:46:00,66.4,31.4,29.32,NNW,333,0.0,0.0,27,0.00,,CLR,0.00,VWS V14.00,2013-05-08 23:46:00,
2013-05-08 16:52:00,66.9,31.9,29.32,WNW,288,3.6,3.6,27,0.00,,CLR,0.00,VWS V14.00,2013-05-08 23:52:00,
2013-05-08 16:57:00,66.9,31.0,29.32,West,277,0.0,3.1,26,0.00,,CLR,0.00,VWS V14.00,2013-05-08 23:57:00,
2013-05-08 17:03:00,67.1,32.0,29.32,West,278,3.1,3.1,27,0.00,,CLR,0.00,VWS V14.00,2013-05-09 00:03:00,
2013-05-08 17:09:00,66.9,31.0,29.32,West,275,0.0,3.1,26,0.00,,CLR,0.00,VWS V14.00,2013-05-09 00:09:00,
2013-05-08 17:14:00,67.1,31.1,29.32,North,11,3.1,5.4,26,0.00,,CLR,0.00,VWS V14.00,2013-05-09 00:14:00,
2013-05-08 17:20:00,67.1,31.1,29.32,WNW,282,0.0,3.1,26,0.00,,CLR,0.00,VWS V14.00,2013-05-09 00:20:00,
2013-05-08 17:25:00,66.9,31.0,29.32,NNW,336,0.0,0.0,26,0.00,,CLR,0.00,VWS V14.00,2013-05-09 00:25:00,
2013-05-08 17:31:00,66.9,31.0,29.32,West,270,2.7,2.7,26,0.00,,CLR,0.00,VWS V14.00,2013-05-09 00:31:00,
2013-05-08 17:36:00,67.1,31.1,29.32,WNW,297,2.7,2.7,26,0.00,,CLR,0.00,VWS V14.00,2013-05-09 00:36:00,
2013-05-08 17:42:00,67.1,31.1,29.32,NNW,332,3.6,3.6,26,0.00,,CLR,0.00,VWS V14.00,2013-05-09 00:42:00,
2013-05-08 17:47:00,67.1,30.1,29.32,NNW,330,3.1,3.1,25,0.00,,CLR,0.00,VWS V14.00,2013-05-09 00:47:00,
2013-05-08 17:52:00,67.1,30.1,29.32,NW,311,3.1,3.1,25,0.00,,CLR,0.00,VWS V14.00,2013-05-09 00:52:00,
2013-05-08 17:58:00,67.3,30.3,29.32,NW,324,0.0,0.0,25,0.00,,CLR,0.00,VWS V14.00,2013-05-09 00:58:00,
2013-05-08 18:03:00,67.1,30.1,29.32,NNW,330,0.0,2.7,25,0.00,,CLR,0.00,VWS V14.00,2013-05-09 01:03:00,
2013-05-08 18:09:00,67.1,30.1,29.32,NNW,327,2.2,3.6,25,0.00,,CLR,0.00,VWS V14.00,2013-05-09 01:09:00,
2013-05-08 18:14:00,67.1,30.1,29.32,NNW,327,0.0,0.0,25,0.00,,CLR,0.00,VWS V14.00,2013-05-09 01:14:00,
2013-05-08 18:20:00,67.6,30.6,29.32,NNW,327,0.0,0.0,25,0.00,,CLR,0.00,VWS V14.00,2013-05-09 01:20:00,
2013-05-08 18:26:00,68.0,29.9,29.32,NW,316,0.0,0.0,24,0.00,,CLR,0.00,VWS V14.00,2013-05-09 01:26:00,
2013-05-08 18:31:00,68.0,29.9,29.32,NW,316,2.2,3.6,24,0.00,,CLR,0.00,VWS V14.00,2013-05-09 01:31:00,
2013-05-08 18:36:00,67.8,29.7,29.32,NW,323,0.0,2.2,24,0.00,,CLR,0.00,VWS V14.00,2013-05-09 01:36:00,
2013-05-08 18:41:00,67.6,29.6,29.32,NW,318,3.1,4.0,24,0.00,,CLR,0.00,VWS V14.00,2013-05-09 01:41:00,
2013-05-08 18:47:00,67.5,29.4,29.32,West,265,0.0,0.0,24,0.00,,CLR,0.00,VWS V14.00,2013-05-09 01:47:00,
2013-05-08 18:52:00,67.5,29.4,29.32,NW,312,0.0,0.0,24,0.00,,CLR,0.00,VWS V14.00,2013-05-09 01:52:00,
2013-05-08 18:57:00,67.1,29.1,29.32,NW,312,0.0,0.0,24,0.00,,CLR,0.00,VWS V14.00,2013-05-09 01:57:00,
2013-05-08 19:02:00,67.1,30.1,29.32,NW,312,2.2,2.2,25,0.00,,CLR,0.00,VWS V14.00,2013-05-09 02:02:00,
2013-05-08 19:08:00,66.7,29.8,29.32,NW,312,0.0,0.0,25,0.00,,CLR,0.00,VWS V14.00,2013-05-09 02:08:00,
2013-05-08 19:13:00,66.4,29.5,29.32,NW,312,0.0,0.0,25,0.00,,CLR,0.00,VWS V14.00,2013-05-09 02:13:00,
2013-05-08 19:19:00,66.0,29.2,29.32,West,274,0.0,4.0,25,0.00,,CLR,0.00,VWS V14.00,2013-05-09 02:19:00,
2013-05-08 19:24:00,65.5,28.8,29.32,West,274,0.0,0.0,25,0.00,,CLR,0.00,VWS V14.00,2013-05-09 02:24:00,
2013-05-08 19:30:00,64.9,29.3,29.32,NNW,341,0.0,0.0,26,0.00,,CLR,0.00,VWS V14.00,2013-05-09 02:30:00,
2013-05-08 19:35:00,64.4,28.8,29.32,NNW,341,0.0,0.0,26,0.00,,CLR,0.00,VWS V14.00,2013-05-09 02:35:00,
2013-05-08 19:41:00,64.0,29.4,29.32,NNW,341,0.0,0.0,27,0.00,,CLR,0.00,VWS V14.00,2013-05-09 02:41:00,
2013-05-08 19:46:00,63.7,30.0,29.32,NNW,341,0.0,0.0,28,0.00,,CLR,0.00,VWS V14.00,2013-05-09 02:46:00,
2013-05-08 19:51:00,63.3,29.7,29.32,NNW,337,0.0,0.0,28,0.00,,CLR,0.00,VWS V14.00,2013-05-09 02:51:00,
2013-05-08 19:57:00,62.8,30.1,29.32,NW,325,0.0,0.0,29,0.00,,CLR,0.00,VWS V14.00,2013-05-09 02:57:00,
2013-05-08 20:02:00,62.4,30.6,29.32,NW,325,0.0,0.0,30,0.00,,CLR,0.00,VWS V14.00,2013-05-09 03:02:00,
2013-05-08 20:08:00,62.1,30.3,29.32,NW,325,0.0,0.0,30,0.00,,CLR,0.00,VWS V14.00,2013-05-09 03:08:00,
2013-05-08 20:13:00,61.7,30.8,29.32,NW,325,0.0,0.0,31,0.00,,CLR,0.00,VWS V14.00,2013-05-09 03:13:00,
2013-05-08 20:19:00,61.2,32.6,29.32,NW,325,0.0,0.0,34,0.00,,CLR,0.00,VWS V14.00,2013-05-09 03:19:00,
2013-05-08 20:25:00,60.8,32.3,29.32,NW,325,0.0,0.0,34,0.00,,CLR,0.00,VWS V14.00,2013-05-09 03:25:00,
2013-05-08 20:30:00,60.4,32.7,29.32,NW,325,0.0,0.0,35,0.00,,CLR,0.00,VWS V14.00,2013-05-09 03:30:00,
2013-05-08 20:36:00,59.9,32.2,29.32,NW,325,0.0,0.0,35,0.00,,CLR,0.00,VWS V14.00,2013-05-09 03:36:00,
2013-05-08 20:41:00,59.4,31.7,29.32,NW,325,0.0,0.0,35,0.00,,CLR,0.00,VWS V14.00,2013-05-09 03:41:00,
2013-05-08 20:46:00,58.8,32.0,29.32,NW,325,0.0,0.0,36,0.00,,CLR,0.00,VWS V14.00,2013-05-09 03:46:00,
2013-05-08 20:52:00,58.3,32.2,29.32,NW,325,0.0,0.0,37,0.00,,CLR,0.00,VWS V14.00,2013-05-09 03:52:00,
2013-05-08 20:57:00,57.6,31.5,29.32,NW,325,0.0,0.0,37,0.00,,CLR,0.00,VWS V14.00,2013-05-09 03:57:00,
2013-05-08 21:01:00,57.2,31.8,29.32,NW,325,0.0,0.0,38,0.00,,CLR,0.00,VWS V14.00,2013-05-09 04:01:00,
2013-05-08 21:02:00,57.2,31.8,29.32,NW,325,0.0,0.0,38,0.00,,CLR,0.00,VWS V14.00,2013-05-09 04:02:00,
2013-05-08 21:04:00,57.0,31.7,29.32,NW,325,0.0,0.0,38,0.00,,CLR,0.00,VWS V14.00,2013-05-09 04:04:00,
2013-05-08 21:06:00,56.8,31.5,29.32,NW,325,0.0,0.0,38,0.00,,CLR,0.00,VWS V14.00,2013-05-09 04:06:00,
2013-05-08 21:11:00,56.5,31.8,29.32,NW,325,0.0,0.0,39,0.00,,CLR,0.00,VWS V14.00,2013-05-09 04:11:00,
2013-05-08 21:13:00,56.3,31.7,29.32,NW,325,0.0,0.0,39,0.00,,CLR,0.00,VWS V14.00,2013-05-09 04:13:00,
2013-05-08 21:18:00,55.9,32.0,29.32,NW,325,0.0,0.0,40,0.00,,CLR,0.00,VWS V14.00,2013-05-09 04:18:00,
2013-05-08 21:24:00,55.6,32.3,29.32,NW,325,0.0,0.0,41,0.00,,CLR,0.00,VWS V14.00,2013-05-09 04:24:00,
2013-05-08 21:29:00,55.2,32.5,29.32,NW,325,0.0,0.0,42,0.00,,CLR,0.00,VWS V14.00,2013-05-09 04:29:00,
2013-05-08 21:35:00,55.0,33.0,29.32,NW,325,0.0,0.0,43,0.00,,CLR,0.00,VWS V14.00,2013-05-09 04:35:00,
2013-05-08 21:40:00,54.5,33.0,29.32,NW,325,0.0,0.0,44,0.00,,CLR,0.00,VWS V14.00,2013-05-09 04:40:00,
2013-05-08 21:46:00,54.3,32.9,29.32,NW,325,0.0,0.0,44,0.00,,CLR,0.00,VWS V14.00,2013-05-09 04:46:00,
2013-05-08 21:51:00,54.1,33.3,29.32,NW,325,0.0,0.0,45,0.00,,CLR,0.00,VWS V14.00,2013-05-09 04:51:00,
2013-05-08 21:56:00,54.0,33.7,29.32,NW,325,0.0,0.0,46,0.00,,CLR,0.00,VWS V14.00,2013-05-09 04:56:00,
2013-05-08 22:01:00,53.8,33.5,29.32,NW,325,0.0,0.0,46,0.00,,CLR,0.00,VWS V14.00,2013-05-09 05:01:00,
2013-05-08 22:07:00,53.6,33.3,29.32,NW,325,0.0,0.0,46,0.00,,CLR,0.00,VWS V14.00,2013-05-09 05:07:00,
2013-05-08 22:12:00,53.4,33.7,29.32,NW,325,0.0,0.0,47,0.00,,CLR,0.00,VWS V14.00,2013-05-09 05:12:00,
2013-05-08 22:17:00,53.1,33.9,29.32,NW,325,0.0,0.0,48,0.00,,CLR,0.00,VWS V14.00,2013-05-09 05:17:00,
2013-05-08 22:23:00,52.9,33.7,29.32,NW,325,0.0,0.0,48,0.00,,CLR,0.00,VWS V14.00,2013-05-09 05:23:00,
2013-05-08 22:28:00,52.7,33.6,29.32,NW,325,0.0,0.0,48,0.00,,CLR,0.00,VWS V14.00,2013-05-09 05:28:00,
2013-05-08 22:34:00,52.5,33.9,29.32,NW,325,0.0,0.0,49,0.00,,CLR,0.00,VWS V14.00,2013-05-09 05:34:00,
2013-05-08 22:40:00,52.5,33.9,29.32,NW,325,0.0,0.0,49,0.00,,CLR,0.00,VWS V14.00,2013-05-09 05:40:00,
2013-05-08 22:45:00,52.3,34.3,29.32,NW,325,0.0,0.0,50,0.00,,CLR,0.00,VWS V14.00,2013-05-09 05:45:00,
2013-05-08 22:51:00,52.2,34.1,29.32,NW,325,0.0,0.0,50,0.00,,CLR,0.00,VWS V14.00,2013-05-09 05:51:00,
2013-05-08 22:56:00,51.8,33.8,29.32,NW,325,0.0,0.0,50,0.00,,CLR,0.00,VWS V14.00,2013-05-09 05:56:00,
2013-05-08 23:02:00,51.6,34.1,29.32,NW,325,0.0,0.0,51,0.00,,CLR,0.00,VWS V14.00,2013-05-09 06:02:00,
2013-05-08 23:08:00,51.4,33.9,29.32,NW,325,0.0,0.0,51,0.00,,CLR,0.00,VWS V14.00,2013-05-09 06:08:00,
2013-05-08 23:13:00,51.3,33.8,29.32,NW,325,0.0,0.0,51,0.00,,CLR,0.00,VWS V14.00,2013-05-09 06:13:00,
2013-05-08 23:19:00,51.3,34.2,29.32,NW,325,0.0,0.0,52,0.00,,CLR,0.00,VWS V14.00,2013-05-09 06:19:00,
2013-05-08 23:24:00,51.3,34.2,29.32,NW,325,0.0,0.0,52,0.00,,CLR,0.00,VWS V14.00,2013-05-09 06:24:00,
2013-05-08 23:30:00,51.1,34.6,29.32,NW,325,0.0,0.0,53,0.00,,CLR,0.00,VWS V14.00,2013-05-09 06:30:00,
2013-05-08 23:36:00,51.1,34.6,29.32,NW,325,0.0,0.0,53,0.00,,CLR,0.00,VWS V14.00,2013-05-09 06:36:00,
2013-05-08 23:41:00,51.1,35.0,29.32,NW,325,0.0,0.0,54,0.00,,CLR,0.00,VWS V14.00,2013-05-09 06:41:00,
2013-05-08 23:47:00,51.1,35.0,29.32,NW,325,0.0,0.0,54,0.00,,CLR,0.00,VWS V14.00,2013-05-09 06:47:00,
2013-05-08 23:52:00,51.1,35.5,29.32,NW,325,0.0,0.0,55,0.00,,CLR,0.00,VWS V14.00,2013-05-09 06:52:00,
2013-05-08 23:58:00,50.9,35.3,29.32,NW,325,0.0,0.0,55,0.00,,CLR,0.00,VWS V14.00,2013-05-09 06:58:00,